COSMOS 1275 DEB, 13053

Orbit data source: Space-Track

COSMOS 1275 DEB, 13053 is space debris in LEO originally from a launch on Thu, 04 Jun 1981 UTC launched from the Plesetsk Missile And Space Complex (PKMTR). Debris objects in space refer to the collection of defunct objects orbiting the Earth. Examples of debris include non-operational satellites, rocket bodies, and fragments generated from explosions, collisions, or faulty payload assembly.

Loading next visibility...
Identifier
13053, 1981-053EY
Orbit
LEO
Country
Flag of CISCIS
Related business
Manufacturer
Unknown
Mission
Spacecraft
Bus & Motor
Unknown
Mass
Unknown
Launch date (UTC)
1981-06-04 (45 years ago)
Launch vehicle
Unknown
Launch site
Plesetsk Missile And Space Complex (PKMTR)
Object type
Payload
Rocket body
Debris
Shape & HBR
Unknown shape, 0.1 m
Radar Cross Section
Small (<0.1 m²)

Expand to show TLE details & history
Last TLE update: 13 hours ago

TLE from 13 hours ago
0 COSMOS 1275 DEB
1 13053U 81053EY  26034.31443581  .00001108  00000-0  11480-2 0  9999
2 13053  83.0775 155.9853 0116298  99.3910 321.9354 13.71904337205156
Epoch: 2026-02-03T07:32Z
TLE epoch observation values (Epoch: 2026-02-03T07:32:47.253Z)
Latitude
59.85957°
Longitude
-78.70289°
Altitude
935.8 km
Speed
7.423 km/s
True Right ascension
11h 11m 57s
True Declination
59° 42' 49"
Sunlit
Object was in full shadow at epoch
Visualization orbit readout
Latitude
Unknown
Longitude
Unknown
Altitude
Unknown
Speed
Unknown
Apparent Right ascension
Unknown
Apparent Declination
Unknown
Sunlit
N/A
Visualization observer readout
Local Sidereal Time
22:38:17
Azimuth
Unknown
Elevation
Unknown
Doppler factor
Unknown
Orbital elements
Apogee altitude
1,075.578 km
Perigee altitude
904.201 km
Semi-major axis
7,368.027 km
Eccentricity
0.01163
Inclination
83.0775°
RAAN
155.9853°
Arg. of periapsis
99.391°
True anomaly
321.10426°
Mean anomaly
321.9354°
Eccentric anomaly
321.52078°
Mean motion
3.43176 °/min
Orbital period
104.9 mins
BSTAR
0.001148
Loading maneuver chart data...
Computing Atmospheric mass density...

Documentation

Showing up to 5 results
|